When you browse on this site, cookies collect data to enhance your experience and personalize the content and advertising you see.
Visit our Privacy Policy to learn more. By continuing to use the site, you agree to this use of cookies and data.
  • Em Portugal
  • Lista de países
  • Para 7 dias
  • Temperatura da água
  • Mapas de satélite
  • Mapa do tempo
  • Widgets de tempo
  • user-avatar
    Iniciar Sessão

    Previsão horária em Pralniki

    Hoje, 25 Março, Segunda-feira

    Tempo Temperatura Precipitação Vento Pressão Humidade
    00:00 +2°C° 0 mm 2 m/s 742 mmHg 75%
    01:00 +1°C° 0 mm 2 m/s 741 mmHg 77%
    02:00 +2°C° 0 mm 1 m/s 741 mmHg 78%
    03:00 +2°C° 0 mm 1 m/s 741 mmHg 79%
    04:00 +1°C° 0 mm 1 m/s 740 mmHg 80%
    05:00 +1°C° 0 mm 1 m/s 740 mmHg 80%
    06:00 +1°C° 0 mm 2 m/s 739 mmHg 76%
    07:00 +1°C° 0 mm 2 m/s 739 mmHg 73%
    08:00 +2°C° 0 mm 2 m/s 739 mmHg 69%
    09:00 +3°C° 0 mm 2 m/s 739 mmHg 60%
    10:00 +4°C° 0 mm 3 m/s 738 mmHg 52%
    11:00 +5°C° 0 mm 3 m/s 738 mmHg 44%
    12:00 +5°C° 0 mm 3 m/s 738 mmHg 43%
    13:00 +7°C° 0 mm 3 m/s 737 mmHg 42%
    14:00 +8°C° 0 mm 3 m/s 737 mmHg 41%
    15:00 +7°C° 0 mm 3 m/s 737 mmHg 43%
    16:00 +7°C° 0 mm 3 m/s 737 mmHg 45%
    17:00 +7°C° 0 mm 2 m/s 736 mmHg 46%
    18:00 +6°C° 0 mm 2 m/s 736 mmHg 51%
    19:00 +5°C° 0 mm 2 m/s 736 mmHg 56%
    20:00 +4°C° 0 mm 2 m/s 736 mmHg 61%
    21:00 +3°C° 0 mm 2 m/s 737 mmHg 65%
    22:00 +3°C° 0 mm 2 m/s 737 mmHg 70%
    23:00 +3°C° 0 mm 2 m/s 737 mmHg 74%

    Amanhã, 26 Março, Terça-feira

    Tempo Temperatura Precipitação Vento Pressão Humidade
    00:00 +1°C° 0 mm 3 m/s 737 mmHg 77%
    01:00 +1°C° 0 mm 3 m/s 737 mmHg 80%
    02:00 -1°C° 0 mm 4 m/s 737 mmHg 84%
    03:00 -1°C° 0 mm 4 m/s 738 mmHg 82%
    04:00 -2°C° 0 mm 5 m/s 738 mmHg 80%
    05:00 -4°C° 0 mm 5 m/s 738 mmHg 78%
    06:00 -4°C° 0 mm 5 m/s 739 mmHg 76%
    07:00 -4°C° 0 mm 5 m/s 739 mmHg 74%
    08:00 -4°C° 0 mm 6 m/s 739 mmHg 73%
    09:00 -3°C° 0 mm 6 m/s 739 mmHg 65%
    10:00 -2°C° 0 mm 6 m/s 740 mmHg 58%
    11:00 +1°C° 0 mm 6 m/s 740 mmHg 51%
    12:00 -1°C° 0.2 mm 7 m/s 739 mmHg 57%
    13:00 -1°C° 0.2 mm 7 m/s 739 mmHg 63%
    14:00 -1°C° 0.2 mm 8 m/s 738 mmHg 69%
    15:00 -1°C° 0.2 mm 7 m/s 738 mmHg 67%
    16:00 -1°C° 0.2 mm 6 m/s 738 mmHg 65%
    17:00 0°C° 0.2 mm 5 m/s 737 mmHg 63%
    18:00 0°C° 0.2 mm 4 m/s 738 mmHg 68%
    19:00 0°C° 0.2 mm 3 m/s 738 mmHg 73%
    20:00 -1°C° 0.2 mm 2 m/s 738 mmHg 78%
    21:00 -1°C° 0.3 mm 2 m/s 738 mmHg 82%
    22:00 -1°C° 0.3 mm 3 m/s 739 mmHg 85%
    23:00 -1°C° 0.3 mm 3 m/s 739 mmHg 89%

    Depois de amanhã, 27 Março, Quarta-feira

    Tempo Temperatura Precipitação Vento Pressão Humidade
    00:00 -2°C° 0 mm 3 m/s 740 mmHg 86%
    01:00 -3°C° 0 mm 4 m/s 741 mmHg 84%
    02:00 -5°C° 0 mm 5 m/s 742 mmHg 81%
    03:00 -4°C° 0 mm 4 m/s 742 mmHg 84%
    04:00 -5°C° 0 mm 4 m/s 743 mmHg 87%
    05:00 -7°C° 0 mm 4 m/s 744 mmHg 90%
    06:00 -6°C° 0 mm 5 m/s 745 mmHg 85%
    07:00 -6°C° 0 mm 5 m/s 745 mmHg 80%
    08:00 -5°C° 0 mm 5 m/s 746 mmHg 74%
    09:00 -4°C° 0 mm 5 m/s 747 mmHg 67%
    10:00 -2°C° 0 mm 5 m/s 747 mmHg 59%
    11:00 -1°C° 0 mm 5 m/s 748 mmHg 51%
    12:00 0°C° 0 mm 5 m/s 748 mmHg 49%
    13:00 0°C° 0 mm 5 m/s 748 mmHg 46%
    14:00 +1°C° 0 mm 5 m/s 749 mmHg 43%
    15:00 +1°C° 0 mm 5 m/s 749 mmHg 46%
    16:00 +1°C° 0 mm 4 m/s 749 mmHg 48%
    17:00 +1°C° 0 mm 4 m/s 749 mmHg 51%
    18:00 +1°C° 0 mm 3 m/s 750 mmHg 57%
    19:00 -1°C° 0 mm 2 m/s 750 mmHg 63%
    20:00 -2°C° 0 mm 2 m/s 750 mmHg 70%
    21:00 0°C° 0 mm 1 m/s 751 mmHg 70%
    22:00 -1°C° 0 mm 1 m/s 751 mmHg 71%
    23:00 -1°C° 0 mm 1 m/s 751 mmHg 72%

    28 Março, Quinta-feira

    Tempo Temperatura Precipitação Vento Pressão Humidade
    00:00 -1°C° 0 mm 1 m/s 752 mmHg 72%
    01:00 -1°C° 0 mm 1 m/s 752 mmHg 72%
    02:00 -1°C° 0 mm 1 m/s 752 mmHg 72%
    03:00 -1°C° 0 mm 1 m/s 753 mmHg 72%
    04:00 -1°C° 0 mm 1 m/s 753 mmHg 72%
    05:00 -1°C° 0 mm 1 m/s 753 mmHg 72%
    06:00 0°C° 0 mm 1 m/s 753 mmHg 68%
    07:00 +1°C° 0 mm 1 m/s 754 mmHg 63%
    08:00 +2°C° 0 mm 1 m/s 754 mmHg 59%
    09:00 +3°C° 0 mm 1 m/s 754 mmHg 55%
    10:00 +5°C° 0 mm 1 m/s 754 mmHg 51%
    11:00 +6°C° 0 mm 1 m/s 755 mmHg 47%
    12:00 +7°C° 0 mm 1 m/s 755 mmHg 47%
    13:00 +7°C° 0 mm 2 m/s 755 mmHg 46%
    14:00 +7°C° 0 mm 2 m/s 755 mmHg 46%
    15:00 +7°C° 0 mm 2 m/s 754 mmHg 50%
    16:00 +7°C° 0 mm 2 m/s 754 mmHg 55%
    17:00 +7°C° 0 mm 2 m/s 754 mmHg 59%
    18:00 +6°C° 0 mm 2 m/s 754 mmHg 66%
    19:00 +4°C° 0 mm 2 m/s 754 mmHg 73%
    20:00 +3°C° 0 mm 2 m/s 754 mmHg 80%
    21:00 +3°C° 0 mm 2 m/s 754 mmHg 84%
    22:00 +2°C° 0 mm 2 m/s 755 mmHg 87%
    23:00 +2°C° 0 mm 2 m/s 755 mmHg 91%

    29 Março, Sexta-feira

    Tempo Temperatura Precipitação Vento Pressão Humidade
    00:00 +1°C° 0 mm 2 m/s 755 mmHg 92%
    01:00 +1°C° 0 mm 2 m/s 755 mmHg 93%
    02:00 +1°C° 0 mm 2 m/s 755 mmHg 94%
    03:00 -1°C° 0 mm 2 m/s 755 mmHg 94%
    04:00 -1°C° 0 mm 2 m/s 755 mmHg 94%
    05:00 -1°C° 0 mm 2 m/s 755 mmHg 95%
    06:00 +1°C° 0 mm 2 m/s 755 mmHg 92%
    07:00 +2°C° 0 mm 2 m/s 755 mmHg 89%
    08:00 +3°C° 0 mm 2 m/s 755 mmHg 87%
    09:00 +3°C° 0 mm 3 m/s 754 mmHg 81%
    10:00 +5°C° 0 mm 3 m/s 754 mmHg 75%
    11:00 +8°C° 0 mm 3 m/s 754 mmHg 70%
    12:00 +9°C° 0 mm 3 m/s 754 mmHg 66%
    13:00 +10°C° 0 mm 4 m/s 753 mmHg 63%
    14:00 +10°C° 0 mm 4 m/s 753 mmHg 59%
    15:00 +10°C° 0 mm 4 m/s 752 mmHg 60%
    16:00 +10°C° 0 mm 4 m/s 752 mmHg 61%
    17:00 +10°C° 0 mm 3 m/s 751 mmHg 62%
    18:00 +9°C° 0 mm 3 m/s 751 mmHg 69%
    19:00 +7°C° 0 mm 2 m/s 751 mmHg 76%
    20:00 +6°C° 0 mm 2 m/s 751 mmHg 84%
    21:00 +5°C° 0 mm 2 m/s 751 mmHg 86%
    22:00 +5°C° 0 mm 2 m/s 751 mmHg 87%
    23:00 +5°C° 0 mm 2 m/s 751 mmHg 89%

    30 Março, Sábado

    Tempo Temperatura Precipitação Vento Pressão Humidade
    00:00 +4°C° 0 mm 2 m/s 750 mmHg 90%
    01:00 +4°C° 0 mm 2 m/s 750 mmHg 91%
    02:00 +3°C° 0 mm 2 m/s 750 mmHg 92%
    03:00 +3°C° 0 mm 2 m/s 750 mmHg 92%
    04:00 +3°C° 0 mm 2 m/s 750 mmHg 93%
    05:00 +3°C° 0 mm 2 m/s 749 mmHg 94%
    06:00 +3°C° 0 mm 3 m/s 749 mmHg 91%
    07:00 +3°C° 0 mm 3 m/s 749 mmHg 88%
    08:00 +4°C° 0 mm 3 m/s 749 mmHg 85%
    09:00 +6°C° 0 mm 4 m/s 748 mmHg 78%
    10:00 +7°C° 0 mm 4 m/s 748 mmHg 72%
    11:00 +9°C° 0 mm 5 m/s 748 mmHg 65%
    12:00 +9°C° 0 mm 5 m/s 748 mmHg 64%
    13:00 +9°C° 0 mm 5 m/s 747 mmHg 62%
    14:00 +10°C° 0 mm 5 m/s 747 mmHg 60%
    15:00 +9°C° 0 mm 5 m/s 746 mmHg 62%
    16:00 +9°C° 0 mm 5 m/s 745 mmHg 63%
    17:00 +9°C° 0 mm 5 m/s 745 mmHg 65%
    18:00 +8°C° 0 mm 4 m/s 745 mmHg 70%
    19:00 +6°C° 0 mm 4 m/s 745 mmHg 76%
    20:00 +5°C° 0 mm 3 m/s 744 mmHg 81%
    21:00 +5°C° 0 mm 3 m/s 744 mmHg 80%
    22:00 +5°C° 0 mm 3 m/s 744 mmHg 79%
    23:00 +5°C° 0 mm 3 m/s 743 mmHg 78%
    Mostrar mais